1508252400.34,28846,21.56,74796.8,11.39,-28.43,-29.95,0,*4D
1508252401.57,28847,21.56,74792.8,11.41,-28.31,-29.95,0,*46
1508252402.81,28848,21.56,74792.8,11.39,-28.31,-30.01,0,*43
1508252404.07,28849,21.56,74798.0,11.41,-28.25,-29.95,0,*4D
1508252405.33,28850,21.56,74792.8,11.41,-28.25,-29.83,0,*42
1508252406.54,28851,21.56,74800.0,11.39,-28.15,-29.83,0,*4F
1508252407.75,28852,21.56,74798.3,11.39,-28.31,-29.95,0,*4D
1508252408.98,28853,21.56,74796.0,11.39,-28.47,-30.11,0,*49
1508252410.21,28854,21.56,74798.8,11.39,-28.47,-30.11,0,*4E
1508252411.42,28855,21.56,74796.8,11.39,-28.31,-29.95,0,*4A
1508252412.68,28856,21.56,74798.8,11.39,-28.25,-30.01,0,*49
1508252413.92,28857,21.56,74794.0,11.39,-28.09,-29.83,0,*44
1508252415.16,28858,21.56,74792.3,11.39,-27.99,-29.67,0,*47
1508252416.39,28859,21.56,74794.0,11.39,-27.99,-29.79,0,*49
1508252417.63,28860,21.56,74796.8,11.39,-27.99,-29.67,0,*4C
1508252418.86,28861,21.56,74792.3,11.39,-28.09,-29.61,0,*4D
1508252420.1,28862,21.56,74794.0,11.39,-27.99,-29.67,0,*4E
1508252421.38,28863,21.56,74796.0,11.37,-27.99,-29.73,0,*44
1508252422.68,28864,21.56,74794.3,11.37,-28.05,-29.89,0,*4C
1508252423.92,28865,21.56,74796.0,11.39,-27.99,-29.83,0,*43
1508252425.15,28866,21.56,74794.5,11.39,-28.09,-29.79,0,*43
1508252426.42,28867,21.56,74796.5,11.37,-28.21,-29.83,0,*43
1508252427.68,28868,21.56,74794.8,11.37,-28.15,-29.73,0,*44
1508252428.94,28869,21.56,74794.8,11.37,-28.15,-29.89,0,*40
1508252430.18,28870,21.56,74792.8,11.37,-27.93,-29.67,0,*49
1508252431.46,28871,21.56,74794.3,11.37,-27.99,-29.73,0,*47
1508252432.7,28872,21.56,74796.0,11.39,-28.15,-30.01,0,*4C
1508252433.91,28873,21.56,74798.3,11.39,-28.15,-29.95,0,*48
1508252435.17,28874,21.56,74794.5,11.37,-28.31,-30.05,0,*46
1508252436.43,28875,21.56,74798.5,11.37,-28.31,-30.01,0,*43
1508252437.67,28876,21.56,74796.0,11.35,-28.15,-29.89,0,*4C
1508252438.9,28877,21.56,74796.8,11.35,-28.15,-29.73,0,*48
1508252440.19,28878,21.56,74792.5,11.37,-28.05,-29.73,0,*44
1508252441.43,28879,21.56,74796.0,11.35,-28.05,-29.67,0,*42
1508252442.67,28880,21.56,74792.5,11.35,-28.05,-29.67,0,*44
1508252443.93,28881,21.56,74792.3,11.35,-27.83,-29.51,0,*41
1508252445.19,28882,21.56,74796.8,11.35,-27.83,-29.51,0,*42
1508252446.45,28883,21.56,74792.3,11.35,-27.83,-29.51,0,*43
1508252447.72,28884,21.56,74794.8,11.37,-27.67,-29.35,0,*4E
1508252448.96,28885,21.56,74792.3,11.35,-27.77,-29.51,0,*4E
1508252450.23,28886,21.56,74798.5,11.35,-27.61,-29.35,0,*48
1508252451.49,28887,21.56,74798.0,11.37,-27.51,-29.39,0,*44
1508252452.72,28888,21.56,74798.3,11.35,-27.67,-29.39,0,*4C
1508252453.98,28889,21.56,74796.3,11.35,-27.99,-29.73,0,*42
1508252455.25,28890,21.56,74792.5,11.35,-28.05,-29.89,0,*45
1508252456.51,28891,21.56,74792.0,11.35,-28.05,-29.89,0,*44
1508252457.75,28892,21.56,74794.5,11.35,-27.99,-29.83,0,*47
1508252459.02,28893,21.56,74792.3,11.35,-28.21,-30.01,0,*48
1508252460.29,28894,21.56,74792.8,11.35,-28.21,-30.17,0,*48
1508252461.5,28895,21.56,74794.3,11.35,-27.93,-29.83,0,*4A
1508252462.76,28896,21.56,74794.5,11.35,-27.83,-29.73,0,*47
1508252464.01,28897,21.56,74794.8,11.35,-27.83,-29.73,0,*46
1508252465.25,28898,21.56,74792.8,11.35,-27.67,-29.51,0,*43
1508252466.49,28899,21.56,74796.3,11.31,-27.67,-29.61,0,*45
1508252467.73,28900,21.56,74794.8,11.31,-27.67,-29.45,0,*42
1508252468.97,28901,21.56,74796.0,11.35,-27.61,-29.57,0,*42
1508252470.23,28902,21.56,74796.5,11.35,-27.83,-29.73,0,*4B
1508252471.5,28903,21.56,74796.3,11.35,-28.05,-29.89,0,*4E
1508252472.77,28904,21.56,74794.3,11.35,-28.21,-30.17,0,*40
1508252473.98,28905,21.56,74798.3,11.35,-28.37,-30.23,0,*41
1508252475.23,28906,21.56,74794.5,11.29,-28.47,-30.39,0,*43
1508252476.48,28907,21.56,74798.8,11.31,-28.37,-30.33,0,*46
1508252477.72,28908,21.56,74794.5,11.31,-28.37,-30.27,0,*4C
1508252478.97,28909,21.56,74794.8,11.29,-28.47,-30.39,0,*4C
1508252480.21,28910,21.56,74798.5,11.31,-28.37,-30.27,0,*45
1508252481.47,28911,21.56,74792.0,11.31,-28.21,-30.11,0,*46
1508252482.73,28912,21.56,74796.5,11.27,-28.25,-30.11,0,*46
1508252483.93,28913,21.56,74792.0,11.29,-28.31,-30.11,0,*4C
1508252485.17,28914,21.56,74792.0,11.29,-28.25,-30.11,0,*4E
1508252486.43,28915,21.56,74792.5,11.27,-28.09,-29.83,0,*4C
1508252487.69,28916,21.56,74794.0,11.27,-28.15,-30.01,0,*40
1508252488.91,28917,21.56,74794.5,11.25,-28.31,-30.05,0,*41
1508252490.18,28918,21.56,74796.3,11.29,-28.25,-30.01,0,*43
1508252491.44,28919,21.56,74796.0,11.29,-28.09,-30.01,0,*4C
1508252492.7,28920,21.56,74792.8,11.31,-28.43,-30.11,0,*40
1508252493.95,28921,21.56,74796.8,11.27,-28.25,-29.95,0,*42
1508252495.18,28922,21.56,74794.3,11.27,-28.31,-30.11,0,*40
1508252496.42,28923,21.56,74796.3,11.25,-28.31,-30.17,0,*45
1508252497.65,28924,21.56,74798.0,11.29,-28.47,-30.27,0,*4C
1508252498.88,28925,21.56,74794.5,11.25,-28.53,-30.39,0,*4B
1508252500.09,28926,21.56,74792.0,11.25,-28.53,-30.27,0,*47
1508252501.35,28927,21.56,74796.3,11.27,-28.47,-30.33,0,*44
1508252502.58,28928,21.56,74790.5,11.25,-28.47,-30.33,0,*49
1508252503.79,28929,21.56,74792.0,11.25,-28.53,-30.23,0,*4C
1508252505.0,28930,21.56,74798.0,11.25,-28.53,-30.23,0,*44
1508252506.23,28931,21.56,74794.5,11.25,-28.63,-30.23,0,*46
1508252507.44,28932,21.56,74798.5,11.25,-28.53,-30.33,0,*47
1508252508.68,28933,21.56,74792.8,11.25,-28.31,-30.17,0,*44
1508252509.94,28934,21.56,74796.5,11.23,-28.31,-30.05,0,*46
1508252511.23,28935,21.56,74796.5,11.23,-28.21,-30.05,0,*46
1508252512.52,28936,21.56,74798.3,11.23,-28.21,-30.01,0,*41
1508252513.76,28937,21.56,74798.0,11.21,-28.25,-30.11,0,*47
1508252515.02,28938,21.56,74794.3,11.23,-28.15,-30.05,0,*4C
1508252516.31,28939,21.56,74794.3,11.23,-28.21,-30.01,0,*4E
1508252517.57,28940,21.56,74794.8,11.21,-28.21,-30.05,0,*46
1508252518.86,28941,21.56,74794.3,11.23,-28.21,-30.05,0,*45
1508252520.1,28942,21.56,74798.3,11.21,-28.37,-30.05,0,*43
1508252521.31,28943,21.56,74794.5,11.21,-28.37,-30.11,0,*47
1508252522.58,28944,21.56,74794.3,11.23,-28.15,-30.01,0,*43
1508252523.84,28945,21.56,74792.8,11.21,-28.21,-30.05,0,*43
1508252525.1,28946,21.56,74796.3,11.21,-28.25,-30.05,0,*44
1508252526.36,28947,21.56,74792.5,11.23,-28.15,-30.05,0,*44
1508252527.66,28948,21.56,74796.0,11.23,-28.21,-30.01,0,*48
1508252528.89,28949,21.56,74794.0,11.21,-28.25,-30.11,0,*4E
1508252530.16,28950,21.56,74794.0,11.21,-28.25,-30.05,0,*43
1508252531.43,28951,21.56,74796.8,11.23,-28.37,-30.17,0,*40
1508252532.64,28952,21.56,74794.3,11.21,-28.37,-30.23,0,*46
1508252533.86,28953,21.56,74794.3,11.21,-28.37,-30.23,0,*47
1508252535.07,28954,21.56,74792.8,11.21,-28.37,-30.23,0,*40
1508252536.32,28955,21.56,74794.3,11.21,-28.21,-29.95,0,*43
1508252537.52,28956,21.56,74796.5,11.21,-28.15,-29.95,0,*47
1508252538.82,28957,21.56,74792.5,11.19,-28.21,-30.01,0,*4F
1508252540.09,28958,21.56,74794.8,11.19,-28.09,-29.83,0,*48
1508252541.35,28959,21.56,74794.3,11.19,-28.05,-29.79,0,*40
1508252542.61,28960,21.56,74792.0,11.19,-28.09,-29.79,0,*46
1508252543.9,28961,21.56,74796.0,11.19,-28.09,-30.01,0,*40
1508252545.13,28962,21.56,74792.5,11.19,-28.31,-30.11,0,*49
1508252546.4,28963,21.56,74792.0,11.19,-28.31,-30.17,0,*4E
1508252547.64,28964,21.56,74794.8,11.19,-28.31,-30.11,0,*4F
1508252548.9,28965,21.56,74792.8,11.19,-28.09,-29.83,0,*46
1508252550.17,28966,21.56,74798.5,11.17,-28.25,-30.01,0,*47
1508252551.43,28967,21.56,74794.8,11.17,-28.25,-30.05,0,*42
1508252552.67,28968,21.56,74794.8,11.17,-28.09,-29.83,0,*45
1508252553.88,28969,21.56,74794.3,11.17,-27.93,-29.67,0,*42
1508252555.11,28970,21.56,74798.3,11.17,-28.31,-30.01,0,*45
1508252556.33,28971,21.56,74792.5,11.17,-28.37,-30.23,0,*42
1508252557.59,28972,21.56,74794.5,11.19,-28.63,-30.45,0,*4E
1508252558.86,28973,21.56,74796.0,11.19,-28.43,-30.27,0,*49
1508252560.09,28974,21.56,74796.0,11.17,-28.37,-30.05,0,*43
1508252561.38,28975,21.56,74792.3,11.15,-28.25,-30.01,0,*47
1508252562.62,28976,21.56,74792.8,11.17,-28.15,-29.89,0,*4D
1508252563.89,28977,21.56,74798.3,11.19,-28.05,-29.83,0,*49
1508252565.15,28978,21.56,74794.3,11.17,-28.09,-30.01,0,*46
1508252566.38,28979,21.56,74798.3,11.17,-28.31,-30.05,0,*48
1508252567.64,28980,21.56,74792.5,11.17,-28.47,-30.17,0,*4C
1508252568.9,28981,21.56,74798.3,11.17,-28.47,-30.17,0,*4D
1508252570.14,28982,21.56,74794.3,11.17,-28.37,-30.01,0,*4E
1508252571.37,28983,21.56,74794.8,11.17,-28.31,-30.05,0,*4D
1508252572.64,28984,21.56,74794.3,11.15,-28.15,-30.01,0,*4A
1508252573.89,28985,21.56,74792.8,11.15,-28.31,-30.05,0,*49
1508252575.16,28986,21.56,74796.8,11.15,-28.37,-30.05,0,*4C
1508252576.42,28987,21.56,74792.0,11.15,-28.37,-30.05,0,*4D
1508252577.68,28988,21.56,74792.0,11.13,-28.21,-30.05,0,*43
1508252578.94,28989,21.56,74794.0,11.13,-28.21,-30.05,0,*42
1508252580.24,28990,21.56,74794.5,11.15,-28.25,-30.01,0,*4C
1508252581.5,28991,21.56,74794.8,11.15,-28.15,-30.01,0,*4E
1508252582.76,28992,21.56,74796.8,11.13,-28.05,-29.73,0,*47
1508252583.97,28993,21.56,74792.5,11.13,-28.31,-29.95,0,*49
1508252585.17,28994,21.56,74792.8,11.13,-28.15,-29.95,0,*48
1508252586.4,28995,21.56,74796.5,11.13,-28.31,-30.05,0,*4E
1508252587.61,28996,21.56,74796.8,11.13,-28.31,-30.11,0,*48
1508252588.84,28997,21.56,74794.5,11.13,-28.31,-30.05,0,*4C
1508252590.05,28998,21.56,74792.0,11.13,-28.31,-30.23,0,*47
1508252591.29,28999,21.56,74796.8,11.13,-28.21,-30.11,0,*46
1508252592.49,29000,21.56,74794.0,11.13,-28.31,-30.11,0,*4F
1508252593.76,29001,21.56,74792.5,11.15,-28.37,-30.17,0,*48
1508252594.99,29002,21.56,74792.8,11.13,-28.43,-30.27,0,*4D
1508252596.2,29003,21.56,74794.5,11.13,-28.31,-30.23,0,*4D
1508252597.43,29004,21.56,74796.5,11.13,-28.43,-30.11,0,*4E
1508252598.69,29005,21.56,74794.8,11.11,-28.37,-30.05,0,*4B
1508252599.99,29006,21.56,74796.5,11.11,-28.21,-29.89,0,*43
1508252601.25,29007,21.56,74794.0,11.11,-28.21,-29.95,0,*4F
1508252602.52,29008,21.56,74796.5,11.11,-28.21,-29.95,0,*40
1508252603.75,29009,21.56,74794.5,11.11,-28.15,-29.95,0,*46
1508252605.04,29010,21.56,74794.5,11.11,-28.05,-29.89,0,*42
1508252606.31,29011,21.56,74796.5,11.07,-28.25,-29.95,0,*4B
1508252607.57,29012,21.56,74794.0,11.11,-28.31,-29.89,0,*47
1508252608.83,29013,21.56,74794.8,11.11,-28.43,-30.27,0,*4F
1508252610.09,29014,21.56,74794.3,11.07,-28.59,-30.27,0,*44
1508252611.36,29015,21.56,74794.5,11.11,-28.15,-29.89,0,*46
1508252612.63,29016,21.56,74794.0,11.11,-28.05,-29.83,0,*4E
1508252613.89,29017,21.56,74792.0,11.07,-28.21,-29.95,0,*49
1508252615.16,29018,21.56,74788.5,11.07,-28.37,-30.01,0,*44
1508252616.45,29019,21.56,74792.5,11.07,-28.25,-30.01,0,*46
1508252617.74,29020,21.56,74792.0,11.07,-28.43,-30.17,0,*4B
1508252619.0,29021,21.56,74792.8,11.07,-28.47,-30.27,0,*4D
1508252620.23,29022,21.56,74796.5,11.11,-28.37,-30.11,0,*4B
1508252621.47,29023,21.56,74794.8,11.07,-28.37,-30.11,0,*4D
1508252622.74,29024,21.56,74796.0,11.07,-28.25,-29.95,0,*4D
1508252624.02,29025,21.56,74792.8,11.07,-28.09,-30.01,0,*47
1508252625.29,29026,21.56,74794.3,11.07,-28.09,-29.95,0,*41
1508252626.54,29027,21.56,74794.3,11.07,-28.43,-30.11,0,*4A
1508252627.81,29028,21.56,74794.8,11.07,-28.59,-30.27,0,*4B
1508252629.07,29029,21.56,74792.5,11.07,-28.59,-30.33,0,*4F
1508252630.34,29030,21.56,74794.3,11.05,-28.47,-30.17,0,*4C
1508252631.55,29031,21.56,74792.5,11.05,-28.53,-30.23,0,*4F
1508252632.79,29032,21.56,74792.0,11.05,-28.47,-30.23,0,*49
1508252634.03,29033,21.56,74792.5,11.03,-28.53,-30.33,0,*4A
1508252635.26,29034,21.56,74794.3,11.05,-28.47,-30.23,0,*4F
1508252636.53,29035,21.56,74794.0,11.05,-28.43,-30.17,0,*4D
1508252637.75,29036,21.56,74796.5,11.05,-28.53,-30.33,0,*49
1508252639.01,29037,21.56,74794.8,11.03,-28.47,-30.23,0,*4A
1508252640.24,29038,21.56,74792.8,11.05,-28.31,-30.05,0,*46
1508252641.48,29039,21.56,74794.3,11.05,-28.31,-30.05,0,*47
1508252642.71,29040,21.56,74788.8,11.05,-28.47,-30.23,0,*4C
1508252643.96,29041,21.56,74792.8,11.03,-28.53,-30.33,0,*4F
1508252645.2,29042,21.56,74792.8,11.03,-28.53,-30.23,0,*4D
1508252646.43,29043,21.56,74794.8,11.03,-28.53,-30.23,0,*4C
1508252647.72,29044,21.56,74794.3,11.03,-28.47,-30.01,0,*4E
1508252648.97,29045,21.56,74792.0,11.05,-28.47,-30.05,0,*4D
1508252650.24,29046,21.56,74792.5,11.03,-28.15,-29.89,0,*43
1508252651.53,29047,21.56,74792.0,11.03,-28.25,-29.89,0,*41
1508252652.77,29048,21.56,74794.5,11.05,-28.31,-30.05,0,*41
1508252654.06,29049,21.56,74794.8,11.03,-28.43,-30.17,0,*40
1508252655.29,29050,21.56,74790.5,11.01,-28.37,-30.05,0,*4A
1508252656.58,29051,21.56,74794.5,11.03,-28.25,-29.89,0,*46
1508252657.85,29052,21.56,74794.3,11.03,-28.47,-30.33,0,*48
1508252659.12,29053,21.56,74794.0,10.99,-28.59,-30.39,0,*4E
1508252660.35,29054,21.56,74792.5,11.01,-28.37,-30.05,0,*4E
1508252661.6,29055,21.56,74792.3,11.01,-28.47,-30.05,0,*48
1508252662.83,29056,21.56,74792.3,10.99,-28.53,-30.27,0,*4E
1508252664.07,29057,21.56,74792.5,10.99,-28.31,-29.89,0,*47
1508252665.31,29058,21.56,74794.3,11.01,-28.21,-29.95,0,*44
1508252666.53,29059,21.56,74792.3,10.99,-28.53,-30.27,0,*41
1508252667.76,29060,21.56,74792.8,10.99,-28.53,-30.23,0,*4F
1508252668.98,29061,21.56,74792.5,10.99,-28.37,-30.11,0,*4D
1508252670.2,29062,21.56,74792.8,10.99,-28.53,-30.23,0,*4D
1508252671.44,29063,21.56,74794.8,10.99,-28.47,-30.11,0,*48
1508252672.7,29064,21.56,74794.3,10.99,-28.47,-30.05,0,*4A
1508252673.95,29065,21.56,74792.0,10.99,-28.37,-30.05,0,*4C
1508252675.2,29066,21.56,74794.0,11.01,-28.47,-30.05,0,*48
1508252676.45,29067,21.56,74794.0,10.99,-28.31,-30.05,0,*48
1508252677.69,29068,21.56,74792.3,10.99,-28.31,-30.05,0,*47
1508252678.91,29069,21.56,74792.3,10.99,-28.53,-30.11,0,*47
1508252680.16,29070,21.56,74792.0,10.99,-28.37,-30.05,0,*48
1508252681.41,29071,21.56,74794.0,10.99,-28.31,-29.89,0,*43
1508252682.6,29072,21.56,74794.0,10.97,-28.37,-30.11,0,*41
1508252683.85,29073,21.56,74792.0,10.95,-28.31,-30.05,0,*41
1508252685.08,29074,21.56,74794.3,10.97,-28.21,-29.95,0,*44
1508252686.3,29075,21.56,74794.5,10.97,-28.25,-29.95,0,*41
1508252687.5,29076,21.56,74794.3,10.97,-28.37,-29.95,0,*41
1508252688.72,29077,21.56,74792.3,10.97,-28.37,-30.01,0,*45
1508252689.95,29078,21.56,74792.5,10.97,-28.25,-29.95,0,*4C
1508252691.17,29079,21.56,74792.3,10.97,-28.09,-29.83,0,*44
1508252692.43,29080,21.56,74792.5,10.95,-28.15,-29.89,0,*47
1508252693.71,29081,21.56,74794.5,10.95,-28.25,-29.89,0,*45
1508252694.94,29082,21.56,74794.8,10.97,-28.09,-29.83,0,*40
1508252696.18,29083,21.56,74794.5,10.99,-28.15,-29.73,0,*4D
1508252697.43,29084,21.56,74792.3,10.97,-28.21,-30.01,0,*4E
1508252698.71,29085,21.56,74794.0,10.95,-28.25,-30.01,0,*49
1508252699.97,29086,21.56,74794.5,10.95,-28.31,-30.17,0,*48
1508252701.22,29087,21.63,74796.0,10.97,-28.25,-30.01,0,*49
1508252702.5,29088,21.56,74794.5,10.95,-28.43,-30.17,0,*43
1508252703.75,29089,21.56,74792.0,10.95,-28.15,-30.05,0,*42
1508252705.0,29090,21.56,74794.3,10.95,-28.15,-30.01,0,*4E
1508252706.26,29091,21.56,74792.5,10.95,-28.59,-30.23,0,*47
1508252707.54,29092,21.56,74794.5,10.95,-28.43,-30.17,0,*48
1508252708.79,29093,21.56,74794.3,10.95,-28.31,-30.17,0,*4C
1508252710.04,29094,21.56,74790.5,10.95,-28.15,-30.05,0,*4E
1508252711.32,29095,21.56,74790.0,10.95,-28.25,-30.05,0,*4C
1508252712.54,29096,21.56,74792.5,10.93,-28.59,-30.23,0,*46
1508252713.74,29097,21.56,74792.5,10.93,-28.53,-30.27,0,*49
1508252714.94,29098,21.56,74792.5,10.93,-28.31,-30.23,0,*46
1508252716.19,29099,21.56,74794.5,10.91,-28.63,-30.27,0,*46
1508252717.44,29100,21.56,74792.3,10.91,-28.47,-30.27,0,*41
1508252718.66,29101,21.56,74790.3,10.91,-28.69,-30.45,0,*48
1508252719.89,29102,21.56,74794.5,10.93,-28.63,-30.45,0,*43
1508252721.14,29103,21.56,74794.8,10.93,-28.63,-30.39,0,*49
1508252722.38,29104,21.56,74790.8,10.93,-28.63,-30.39,0,*4E
1508252723.65,29105,21.56,74788.3,10.91,-28.75,-30.39,0,*4A
1508252724.9,29106,21.56,74790.8,10.91,-28.69,-30.39,0,*44
1508252726.1,29107,21.56,74792.3,10.89,-28.69,-30.27,0,*43
1508252727.35,29108,21.56,74794.8,10.89,-28.43,-30.17,0,*47
1508252728.57,29109,21.56,74792.8,10.89,-28.43,-30.11,0,*40
1508252729.77,29110,21.56,74792.3,10.89,-28.53,-30.11,0,*49
1508252731.02,29111,21.56,74792.5,10.89,-28.43,-30.17,0,*4F
1508252732.23,29112,21.56,74794.0,10.89,-28.43,-30.11,0,*4A
1508252733.46,29113,21.56,74790.0,10.89,-28.25,-29.95,0,*4F
1508252734.68,29114,21.56,74792.3,10.85,-28.31,-30.05,0,*40
1508252735.88,29115,21.56,74794.0,10.89,-28.37,-30.11,0,*4E
1508252737.08,29116,21.56,74794.5,10.89,-28.53,-30.27,0,*4A
1508252738.31,29117,21.56,74792.3,10.85,-28.63,-30.33,0,*41
1508252739.56,29118,21.56,74790.8,10.85,-28.43,-30.17,0,*4A
1508252740.8,29119,21.56,74792.0,10.85,-28.43,-30.05,0,*48
1508252742.02,29120,21.56,74790.5,10.91,-28.31,-29.95,0,*43
1508252743.27,29121,21.56,74788.8,10.85,-28.25,-30.05,0,*43
1508252744.53,29122,21.56,74792.5,10.89,-28.25,-30.01,0,*48
1508252745.78,29123,21.56,74792.3,10.89,-28.09,-29.89,0,*4F
1508252746.99,29124,21.56,74792.0,10.89,-28.09,-29.79,0,*47
1508252748.22,29125,21.56,74794.8,10.85,-28.09,-29.83,0,*4F
1508252749.46,29126,21.56,74792.3,10.85,-28.43,-30.05,0,*44
1508252750.71,29127,21.56,74788.3,10.85,-28.43,-30.05,0,*45
1508252751.93,29128,21.56,74794.5,10.85,-28.31,-30.05,0,*4F
1508252753.15,29129,21.56,74794.8,10.89,-28.31,-30.05,0,*42
1508252754.37,29130,21.56,74794.3,10.89,-28.37,-30.01,0,*48
1508252755.62,29131,21.56,74790.8,10.85,-28.43,-30.01,0,*46
1508252756.87,29132,21.56,74792.0,10.85,-28.25,-30.01,0,*45
1508252758.13,29133,21.56,74794.5,10.85,-28.25,-30.01,0,*44
1508252759.37,29134,21.56,74790.5,10.85,-28.43,-30.05,0,*47
1508252760.62,29135,21.56,74792.8,10.85,-28.43,-30.05,0,*46
1508252761.84,29136,21.63,74792.3,10.85,-28.31,-30.05,0,*40
1508252763.03,29137,21.56,74794.3,10.85,-28.31,-29.95,0,*40
1508252764.23,29138,21.56,74790.8,10.85,-28.15,-29.95,0,*49
1508252765.5,29139,21.56,74792.3,10.83,-28.25,-30.01,0,*48
1508252766.75,29140,21.56,74792.8,10.85,-28.43,-30.01,0,*40
1508252768.0,29141,21.56,74792.5,10.83,-28.31,-30.01,0,*42
1508252769.27,29142,21.56,74792.3,10.83,-28.25,-30.01,0,*44
1508252770.55,29143,21.63,74792.8,10.83,-28.43,-30.17,0,*42
1508252771.79,29144,21.56,74790.3,10.83,-28.47,-30.23,0,*46
1508252772.99,29145,21.56,74790.5,10.81,-28.15,-29.83,0,*40
1508252774.27,29146,21.56,74792.5,10.83,-28.25,-30.01,0,*40
1508252775.52,29147,21.56,74792.5,10.81,-28.25,-30.01,0,*43
1508252776.77,29148,21.63,74794.0,10.81,-28.05,-29.89,0,*46
1508252778.01,29149,21.56,74790.3,10.83,-27.99,-29.79,0,*40
1508252779.26,29150,21.56,74794.0,10.83,-28.09,-29.83,0,*4B
1508252780.51,29151,21.56,74792.8,10.83,-28.09,-29.95,0,*4D
1508252781.76,29152,21.63,74792.0,10.81,-28.21,-30.01,0,*43
1508252783.01,29153,21.63,74792.8,10.83,-28.25,-29.95,0,*41
1508252784.24,29154,21.56,74792.8,10.81,-28.15,-29.89,0,*4A
1508252785.46,29155,21.56,74790.5,10.81,-27.99,-29.83,0,*4A
1508252786.65,29156,21.63,74792.3,10.81,-28.31,-29.95,0,*43
1508252787.88,29157,21.56,74792.0,10.81,-28.37,-30.05,0,*45
1508252789.13,29158,21.56,74790.5,10.81,-28.21,-30.01,0,*49
1508252790.33,29159,21.56,74792.3,10.81,-28.53,-30.27,0,*49
1508252791.54,29160,21.56,74792.3,10.81,-28.47,-30.11,0,*43
1508252792.79,29161,21.56,74792.8,10.83,-28.09,-29.83,0,*49
1508252794.02,29162,21.56,74790.5,10.81,-28.15,-29.89,0,*4F
1508252795.25,29163,21.56,74790.5,10.81,-28.05,-29.83,0,*45
1508252796.47,29164,21.56,74794.5,10.81,-28.15,-29.89,0,*49
1508252797.72,29165,21.56,74792.5,10.81,-28.05,-29.73,0,*4C
1508252798.92,29166,21.56,74792.3,10.81,-28.15,-29.83,0,*41
1508252800.17,29167,21.63,74794.0,10.79,-28.15,-30.01,0,*45
1508252801.42,29168,21.56,74788.5,10.79,-28.15,-30.01,0,*4A
1508252802.66,29169,21.56,74794.0,10.77,-28.09,-30.05,0,*4C
1508252803.88,29170,21.56,74790.8,10.77,-28.09,-29.95,0,*45
1508252805.11,29171,21.56,74794.0,10.81,-28.05,-29.83,0,*46
1508252806.36,29172,21.56,74792.5,10.79,-27.99,-29.83,0,*48
1508252807.63,29173,21.56,74788.8,10.79,-27.99,-29.73,0,*46
1508252808.85,29174,21.56,74790.8,10.81,-27.99,-29.67,0,*43
1508252810.05,29175,21.63,74792.3,10.81,-28.53,-30.23,0,*43
1508252811.3,29176,21.56,74790.3,10.77,-28.43,-30.17,0,*4F
1508252812.55,29177,21.63,74792.0,10.79,-28.63,-30.23,0,*45
1508252813.77,29178,21.56,74790.5,10.77,-28.63,-30.27,0,*40
1508252815.02,29179,21.56,74790.8,10.77,-28.75,-30.51,0,*47
1508252816.24,29180,21.63,74792.5,10.77,-28.85,-30.51,0,*4E
1508252817.49,29181,21.63,74792.3,10.77,-28.75,-30.51,0,*40
1508252818.71,29182,21.56,74792.8,10.77,-28.37,-30.17,0,*47
1508252819.96,29183,21.56,74790.0,10.77,-28.25,-30.05,0,*46
1508252821.16,29184,21.56,74790.5,10.77,-28.53,-30.11,0,*45
1508252822.38,29185,21.63,74794.8,10.77,-28.25,-29.95,0,*41
1508252823.63,29186,21.63,74792.5,10.75,-28.43,-30.23,0,*45
1508252824.87,29187,21.63,74792.0,10.75,-28.47,-30.11,0,*41
1508252826.08,29188,21.63,74794.0,10.73,-28.47,-30.11,0,*48
1508252827.33,29189,21.63,74790.3,10.75,-28.31,-30.01,0,*4F
1508252828.58,29190,21.63,74792.8,10.75,-28.43,-30.11,0,*43
1508252829.8,29191,21.56,74790.8,10.73,-28.31,-30.01,0,*40
1508252831.0,29192,21.56,74788.8,10.73,-28.15,-29.83,0,*47
1508252832.22,29193,21.63,74792.5,10.75,-28.15,-29.95,0,*47
1508252833.44,29194,21.56,74788.8,10.73,-28.09,-29.95,0,*4B
1508252834.69,29195,21.56,74790.0,10.75,-28.09,-29.95,0,*4C
1508252835.89,29196,21.56,74792.0,10.73,-28.15,-29.95,0,*44
1508252837.17,29197,21.56,74790.3,10.75,-28.25,-30.01,0,*45
1508252838.42,29198,21.63,74792.3,10.75,-28.25,-30.11,0,*4B
1508252839.67,29199,21.56,74788.8,10.73,-28.25,-30.01,0,*4D
1508252840.89,29200,21.56,74790.0,10.73,-28.31,-30.01,0,*4B
1508252842.12,29201,21.63,74794.5,10.73,-28.15,-30.01,0,*4C
1508252843.34,29202,21.63,74790.5,10.73,-28.15,-30.01,0,*4F
1508252844.56,29203,21.56,74786.5,10.73,-28.15,-30.01,0,*4E
1508252845.79,29204,21.63,74792.0,10.73,-28.15,-30.01,0,*49
1508252847.01,29205,21.56,74790.8,10.73,-28.15,-30.01,0,*48
1508252848.21,29206,21.63,74790.3,10.73,-28.15,-29.95,0,*4E
1508252849.4,29207,21.56,74792.3,10.73,-28.15,-29.95,0,*4F
1508252850.6,29208,21.56,74788.0,10.73,-28.15,-29.83,0,*47
1508252851.85,29209,21.56,74790.8,10.71,-28.15,-30.01,0,*46
1508252853.11,29210,21.56,74790.0,10.71,-28.31,-30.17,0,*4F
1508252854.3,29211,21.56,74788.8,10.73,-28.15,-30.11,0,*4C
1508252855.53,29212,21.56,74790.3,10.73,-28.25,-30.11,0,*4C
1508252856.78,29213,21.63,74792.3,10.71,-28.31,-30.17,0,*4C
1508252858.01,29214,21.56,74790.3,10.71,-28.37,-30.23,0,*4A
1508252859.26,29215,21.63,74794.5,10.71,-28.47,-30.23,0,*4C
1508252860.49,29216,21.63,74792.3,10.71,-28.37,-30.27,0,*4C
1508252861.7,29217,21.56,74788.8,10.69,-28.37,-30.23,0,*40
1508252862.9,29218,21.63,74794.5,10.69,-28.37,-30.23,0,*4F
1508252864.12,29219,21.56,74790.0,10.69,-28.47,-30.23,0,*49
1508252865.37,29220,21.63,74790.3,10.69,-28.47,-30.39,0,*48
1508252866.62,29221,21.63,74790.3,10.69,-28.63,-30.39,0,*4F
1508252867.85,29222,21.56,74788.8,10.69,-28.53,-30.39,0,*4F
1508252869.07,29223,21.56,74790.8,10.67,-28.59,-30.27,0,*45
1508252870.29,29224,21.56,74788.3,10.67,-28.43,-30.23,0,*4D
1508252871.49,29225,21.63,74794.5,10.63,-28.37,-30.23,0,*4B
1508252872.72,29226,21.63,74794.0,10.67,-28.25,-30.23,0,*4F
1508252873.95,29227,21.63,74792.8,10.63,-28.31,-30.17,0,*48
1508252875.18,29228,21.56,74788.0,10.67,-28.25,-30.23,0,*41
1508252876.4,29229,21.63,74794.0,10.63,-28.43,-30.27,0,*40
1508252877.61,29230,21.63,74794.3,10.63,-28.37,-30.23,0,*4F
1508252878.83,29231,21.63,74790.5,10.63,-28.43,-30.27,0,*49
1508252880.07,29232,21.63,74792.5,10.63,-28.31,-30.17,0,*4C
1508252881.29,29233,21.63,74792.8,10.63,-28.25,-30.11,0,*4E
1508252882.51,29234,21.63,74792.8,10.67,-28.43,-30.11,0,*4D
1508252883.74,29235,21.56,74792.0,10.63,-28.31,-30.17,0,*4B
1508252884.96,29236,21.63,74792.5,10.67,-28.25,-30.11,0,*4F
1508252886.19,29237,21.63,74792.3,10.63,-28.43,-30.27,0,*4F
1508252887.41,29238,21.63,74790.5,10.63,-28.47,-30.27,0,*44
1508252888.65,29239,21.63,74790.8,10.63,-28.59,-30.33,0,*4F
1508252889.87,29240,21.63,74790.3,10.63,-28.43,-30.27,0,*4F
1508252891.07,29241,21.63,74792.0,10.67,-28.37,-30.11,0,*4C
1508252892.31,29242,21.63,74794.5,10.61,-28.43,-30.27,0,*4F
1508252893.57,29243,21.56,74788.0,10.61,-28.43,-30.33,0,*4B
1508252894.82,29244,21.63,74792.0,10.61,-28.59,-30.33,0,*47
1508252896.05,29245,21.56,74790.0,10.63,-28.59,-30.27,0,*41